ONEWEB-0695, 61602

Orbit data source: Space-Track

ONEWEB-0695, 61602 is a payload satellite owned by Eut. One Web (UK) in LEO that was launched on Sun, 20 Oct 2024 UTC via an FALCON 9 launch vehicle from the Air Force Western Test Range (AFWTR). Payload-class satellites include a variety of spacecraft equipped with specific instruments for various scientific and technological missions. These include communications satellites like Starlink; space stations such as the ISS; scientific satellites like the Hubble; Earth observation satellites from companies like Planet Labs, Umbra, and HawkEye 360; GPS; miniature CubeSats for education and research; and military/defense satellites.

Loading next visibility...
Identifier
61602, 2024-188J
Orbit
LEO
Last TLE update
18 hours ago
Origin
Manufacturer
One Web
Mission
Operational Commercial Communications
Bus & Motor
ARROW, Unknown motor
Mass
148 kg wet, ~140 kg dry
Launch date (UTC)
2024-10-20 (9 months ago)
Launch vehicle
FALCON 9
Launch site
Air Force Western Test Range (AFWTR)
Object type
Payload
Rocket body
Debris
Shape & HBR
Trap Box + 2 Pan, 5 m
Radar Cross Section
2.032 m², Medium (>0.1 m² and < 1m²)

Expand to show TLE details & history

TLE from 18 hours ago
0 ONEWEB-0695
1 61602U 24188J   25191.68813354  .00000177  00000-0  46342-3 0  9991
2 61602  87.8833  89.1614 0001987  59.5736 300.5588 13.11418754 39706
Epoch: 2025-07-10T16:30Z
TLE epoch observation values (Epoch: 2025-07-10T16:30:54.737Z)
Latitude
-0.00005°
Longitude
-87.4175°
Altitude
1,219.798 km
Speed
7.245 km/s
True Right ascension
05h 56m 38s
True Declination
0° 00' 00"
Sunlit
Object was in daylight at epoch
Visualization orbit readout
Latitude
7.54954°
Longitude
-87.29068°
Altitude
1,218.931 km
Speed
7.246 km/s
Apparent Right ascension
07h 54m 26s
Apparent Declination
-17° 27' 14"
Sunlit
Object is in daylight
Visualization observer readout
Local Sidereal Time
23:09:49
Azimuth
76.474° E
Elevation
-42.375°
Doppler factor
1
Orbital elements
Apogee altitude
1,216.303 km
Perigee altitude
1,213.285 km
Semi-major axis
7,592.931 km
Eccentricity
0.0002
Inclination
87.8833°
RAAN
89.1614°
Arg. of periapsis
59.5736°
True anomaly
Unknown
Mean anomaly
300.5588°
Eccentric anomaly
Unknown
Mean motion
3.28042 °/min
Orbital period
109.74 mins
BSTAR
0.00046342
Loading maneuver chart data...
Loading SW <> Apogee altitude chart data...
Loading historical data...
Loading historical data...
Loading historical data...
Loading historical data...
Loading historical data...
Loading historical data...
Loading historical data...

ONEWEB-0695 Visibility forecast

Observer location: undefined°, undefined°

Span
Click to sort rows by Start time (UTC) header in descending order
Start Az.
Max El. time (UTC)
Max El. Az.
Max El.
End time (UTC)
End Az.
11 mins2025-07-11 16:25:52.525Z132.993° SE2025-07-11 16:31:52.525Z76.824° E25.696°2025-07-11 16:36:52.525Z26.984° NE
12 mins2025-07-11 18:15:52.525Z206.123° SW2025-07-11 18:20:52.525Z264.473° W37.475°2025-07-11 18:27:52.525Z348.975° N
9 mins2025-07-12 03:56:52.525Z39.465° NE2025-07-12 04:00:52.525Z80.638° E21.164°2025-07-12 04:05:52.525Z124.907° SE
13 mins2025-07-12 05:44:52.525Z350.878° N2025-07-12 05:50:52.525Z274.963° WNW41.776°2025-07-12 05:57:52.525Z195.92° SSW
|